Location: Blomtuin
(33.8827°S, 18.6521°E)
Time: 06:22:55
(UTC+00:00)

Daily predictions for brighter satellites

Satellite Brightness Start Highest point End
(mag) Time Altitude Azimuth Time Altitude Azimuth Time Altitude Azimuth
CZ-4B R/B 3.2 16:53:42 10° SSE 16:59:07 82° ENE 17:04:33 10° NNW
H-2A R/B 4.4 16:56:38 10° S 17:00:18 33° WSW 17:03:50 10° NW
BREEZE-M DEB (TANK) 3.2 16:57:32 10° SW 17:04:44 64° SSE 17:07:33 10° ENE
Cosmos 1271 Rocket 3.4 17:01:30 10° NNE 17:05:01 32° E 17:08:31 10° SSE
Cosmos 1782 Rocket 4.4 17:02:38 10° SSW 17:06:57 56° W 17:11:13 10° N
USA 215 4.2 17:05:19 10° ESE 17:10:44 27° ENE 17:16:05 10° N
Cosmos 2151 Rocket 4.2 17:07:23 10° SSE 17:11:30 36° E 17:15:34 10° NNE
Gbstr 26 Del rocket 4.4 17:08:31 10° WSW 17:12:47 44° NW 17:17:53 10° NNE
X-37B 1.0 17:10:33 10° SW 17:13:42 48° SSE 17:16:38 11° ENE
Cosmos 1072 Rocket 4.5 17:07:47 10° S 17:13:56 67° E 17:20:03 10° NNE
Okean O Rocket 2.2 17:09:35 10° S 17:14:01 65° WSW 17:18:26 10° NNW
Cosmos 2278 Rocket 3.0 17:09:20 10° S 17:14:21 30° ESE 17:19:19 10° ENE
Cosmos 1242 Rocket 3.3 17:12:43 10° NNW 17:16:07 54° W 17:19:35 10° S
BREEZE-M R/B 3.5 17:14:49 10° WSW 17:17:48 35° NW 17:20:06 10° NNE
Cosmos 2034 Rocket 4.3 17:13:57 10° S 17:20:05 47° E 17:26:10 10° NNE
FALCON 9 DEB 4.2 17:19:45 10° N 17:22:26 24° NE 17:24:25 14° E
Cosmos 2221 Rocket 4.2 17:18:12 10° NNW 17:22:39 63° W 17:27:07 10° S
Cosmos 1844 Rocket 4.4 17:18:57 10° SW 17:24:03 36° WNW 17:29:06 10° N
Cosmos 1066 Rocket 4.2 17:19:03 10° N 17:24:36 71° E 17:30:22 10° SSE
Meteor 1-23 Rocket 4.2 17:19:57 10° N 17:25:27 65° E 17:31:04 10° SSE
GP-B 3.8 17:26:23 10° N 17:30:46 59° W 17:35:15 10° S
BREEZE-M DEB (TANK) 3.9 17:31:28 10° N 17:34:38 26° ENE 17:41:37 10° ESE
FALCON 9 DEB 3.7 17:31:50 10° NNW 17:34:49 33° NE 17:36:24 21° E
Cosmos 1842 4.3 17:39:00 10° NE 17:42:15 25° E 17:45:35 10° SE
Hubble Space Telescope 2.5 17:43:03 10° NNW 17:45:49 17° NNE 17:46:46 16° NE
CZ-2C R/B 4.4 17:42:35 16° NE 17:45:53 36° ESE 17:50:16 10° S
RESURS DK-1 3.2 17:42:19 10° S 17:46:03 31° ESE 17:47:18 26° E
CZ-2C R/B 2.7 17:41:46 10° NNE 17:47:24 89° E 17:53:00 10° SSW
Meteor 1-15 Rocket 4.1 17:41:57 10° S 17:47:38 73° E 17:53:11 10° NNE
CZ-4C R/B 1.8 17:42:43 10° SSW 17:47:57 68° ESE 17:51:19 18° NE
Cosmos 1340 Rocket 4.2 17:44:58 10° SSE 17:47:28 20° ESE 17:47:28 20° ESE
Cosmos 1939 Rocket 2.8 17:44:54 10° SSE 17:48:55 84° E 17:52:57 10° N
CZ-2D R/B 3.2 17:45:16 10° SSE 17:49:09 60° E 17:52:59 10° N
Cosmos 773 Rocket 4.4 17:46:13 10° NNW 17:51:30 70° WSW 17:56:50 10° SSE
Cosmos 1634 Rocket 4.5 17:47:08 10° SSE 17:52:54 37° ESE 17:56:48 19° NE
SL-16 R/B 2.5 17:47:47 10° N 17:53:05 43° ENE 17:58:27 10° SE
Helios 1A Rocket 2.8 17:49:35 10° SSE 17:53:43 84° ENE 17:57:46 10° NNW
CSL-04 Rocket 4.4 17:49:15 10° SE 17:53:47 28° E 17:58:16 10° NNE
Cosmos 2237 Rocket 2.9 17:49:43 10° NW 17:55:17 58° WSW 18:00:56 10° SSE
Aureole 2 Rocket 2.2 17:56:07 10° S 17:58:55 50° ESE 17:58:55 50° ESE
Delta 2 Rocket 4.2 18:02:51 10° NW 18:08:16 51° NNE 18:09:47 39° ENE
SeaSat 1 3.9 18:04:13 10° S 18:08:48 39° WSW 18:13:22 10° NW
APEX 3.3 18:05:40 10° SSW 18:09:12 46° SE 18:09:12 46° SE
Okean 1 Rocket 2.9 18:05:25 10° S 18:09:53 77° E 18:12:57 20° NNE
USA 276 3.8 18:07:13 10° SSW 18:09:26 24° SSE 18:09:26 24° SSE
FALCON 9 DEB 2.9 18:07:41 10° NW 18:10:57 85° SW 18:11:12 74° SSE
Cosmos 1975 Rocket 3.6 18:14:41 39° SE 18:14:41 39° SE 18:17:59 10° SSE
Okean-O 2.7 18:09:33 10° S 18:14:03 78° WSW 18:18:30 10° NNW
FALCON 9 DEB 3.3 18:16:18 10° NW 18:19:30 67° SW 18:19:30 67° SW
Cosmos 1943 Rocket 4.1 18:18:53 10° SSE 18:20:53 14° SE 18:20:53 14° SE
YAOGAN 1 2.6 18:19:06 10° S 18:23:31 83° WSW 18:27:51 10° NNW
Cosmos 1805 3.9 18:23:05 10° SSW 18:26:58 56° W 18:29:00 25° NNW
H-2A R/B 2.6 18:22:14 10° SSE 18:25:34 37° SE 18:25:34 37° SE
OAO 3 Rocket 3.0 18:23:30 10° WNW 18:28:09 67° NNE 18:28:14 67° NNE
CZ-4 R/B 2.2 18:24:52 10° S 18:28:55 53° WSW 18:32:59 10° NNW
Meteor 1-22 Rocket 4.0 18:24:33 10° S 18:29:57 83° E 18:32:18 36° NNE
FALCON 9 R/B 3.1 18:31:38 10° W 18:32:18 17° W 18:32:18 17° W
Cosmos 2279 Rocket 4.1 18:29:55 10° S 18:35:53 51° ESE 18:35:53 51° ESE
Meteor 1-21 4.1 18:31:18 10° N 18:36:56 81° E 18:42:43 10° S
Cosmos 1733 3.7 18:34:05 10° SSW 18:37:56 59° W 18:37:56 59° W
Cosmos 724 4.2 18:32:00 10° NNW 18:38:11 76° ENE 18:43:17 16° SSE
Cosmos 2142 Rocket 4.5 18:32:39 10° S 18:39:05 65° E 18:40:12 56° NE
COSMOS 2455 3.2 18:37:10 10° SSW 18:43:07 62° WNW 18:45:42 34° N
Cosmos 2297 4.3 18:41:14 10° S 18:45:47 43° SE 18:45:47 43° SE
Cosmos 2369 Rocket 4.3 18:45:58 10° SSE 18:46:56 13° SSE 18:46:56 13° SSE
X-37B 3.6 18:47:53 10° W 18:48:56 15° WNW 18:48:56 15° WNW
USA 215 3.5 18:48:11 14° SE 18:53:57 69° SW 19:00:28 10° NW
EO 1 Delta rocket 4.0 18:54:23 77° SW 18:54:23 77° SW 18:58:53 10° S
CZ-2C R/B 3.5 18:51:54 10° S 18:56:36 54° WSW 19:01:18 10° NNW
Cosmos 2278 Rocket 3.8 18:53:22 10° SW 18:58:20 31° WNW 19:02:19 14° NNW
Lacrosse 5 4.5 19:08:29 10° S 19:08:44 10° S 19:08:44 10° S
SL-16 R/B 4.3 19:32:55 10° WNW 19:37:20 23° WSW 19:41:48 10° S
Cosmos 1943 Rocket 4.4 20:00:47 10° SSW 20:02:25 20° SSW 20:02:25 20° SSW
